COSMOS 2251 DEB, 33779

Orbit data source: Space-Track

COSMOS 2251 DEB, 33779 is space debris in LEO originally from a launch on Wed, 16 Jun 1993 UTC launched from the Plesetsk Missile And Space Complex (PKMTR). The debris from Iridium 33, an American commercial communications satellite, has been tracked extensively since its accidental collision with the defunct Russian satellite Cosmos 2251 in 2009. This event, occurring at high speed in low Earth orbit (LEO), generated thousands of pieces of space debris, significantly increasing the risk of further collisions. The Iridium 33 debris cloud has impacted space traffic management and orbital debris mitigation strategies, making it a subject of ongoing study in space situational awareness.

Loading next visibility...
Identifier
33779, 1993-036U
Orbit
LEO
Country
Flag of CISCIS
Related business
Manufacturer
Unknown
Mission
Spacecraft
Bus & Motor
Unknown
Mass
Unknown
Launch date (UTC)
1993-06-16 (33 years ago)
Launch vehicle
Unknown
Launch site
Plesetsk Missile And Space Complex (PKMTR)
Object type
Payload
Rocket body
Debris
Shape & HBR
Unknown shape, 0.1 m
Radar Cross Section
Medium (>0.1 m² and <1 m²)

Expand to show TLE details & history
Last TLE update: 9 hours ago

TLE from 9 hours ago
0 COSMOS 2251 DEB
1 33779U 93036U   26264.61774603  .00004826  00000-0  70436-3 0  9997
2 33779  74.0455 339.2698 0016774 306.6797 123.2065 14.75957241926954
Epoch: 2026-09-21T14:49Z
TLE epoch observation values (Epoch: 2026-09-21T14:49:33.256Z)
Latitude
64.75819°
Longitude
153.4795°
Altitude
659.393 km
Speed
7.53 km/s
True Right ascension
01h 05m 27s
True Declination
64° 37' 24"
Sunlit
Object was in daylight at epoch
Visualization orbit readout
Latitude
Unknown
Longitude
Unknown
Altitude
Unknown
Speed
Unknown
Apparent Right ascension
Unknown
Apparent Declination
Unknown
Sunlit
N/A
Visualization observer readout
Local Sidereal Time
16:25:57
Azimuth
Unknown
Elevation
Unknown
Doppler factor
Unknown
Orbital elements
Apogee altitude
651.465 km
Perigee altitude
627.922 km
Semi-major axis
7,017.83 km
Eccentricity
0.00168
Inclination
74.0455°
RAAN
339.2698°
Arg. of periapsis
306.6797°
True anomaly
123.36714°
Mean anomaly
123.2065°
Eccentric anomaly
123.28684°
Mean motion
3.69181 °/min
Orbital period
97.51 mins
BSTAR
0.00070436

Documentation

Showing up to 5 results
|